Tracking 29892 objects as of 21-Nov-2024
HD Live streaming from Space Station
objects crossing your sky now

COSMOS 292

Track COSMOS 292 now!
10-day predictions
COSMOS 292 is classified as:


NORAD ID: 4070
Int'l Code: 1969-070A
Perigee: 710.7 km
Apogee: 723.4 km
Inclination: 74.0 °
Period: 99.0 minutes
Semi major axis: 7088 km
RCS: 2.416 m2 (large)
Launch date: August 13, 1969
Source: Commonwealth of Independent States (former USSR) (CIS)
Launch site: PLESETSK MISSILE AND SPACE COMPLEX (PKMTR)
Your satellite tracking list
Your tracking list is empty




NASA's NSSDC Master Catalog

Two Line Element Set (TLE):
1 04070U 69070A   24325.39605855  .00000695  00000-0  16843-3 0  9995
2 04070  74.0469 310.9009 0008957  48.1011 312.0914 14.54826448922659
Source of the keplerian elements: AFSPC